Climatologie pour Saint-Brevin les Pins
Jour • Résumé pour mai 10, 2017 Système :  Métrique    Anglais   Mixte
« - 1 jour
+ 1 jour »
Jour Semaine Mois Année Personnalisé
  Maximum : Minimum : Moyenne :
Température sous abri : -17.8 °C -13.3 °C -10.3 °C
Point de rosée : -17.8 °C -14.8 °C -12.6 °C
Humidité : Humidity % 55 % 76 %
Vitesse du vent : 0 km/h 0 km/h 13.4 km/h
Rafale : 0 km/h - -
Direction :- - ESE
Pression : 0 hPa 33799.1 hPa -
Précipitations : 0 mm    
Historical Graphs
 
 
Tableau de données pour mai 10, 2017
Heure Tempé Pt rosée Pression Vent Vitesse Rafale Humidité Taux pluie (/hr) Soleil
-17.8 °C -17.8 °C 0 hPa Calm     Humidity % 0 mm SolarRadiationWatts/m^2 W/m2 Conditions
00:00 -12.3 °C -14.3 °C 34178.3 hPa East 2.6 km/h 12.9 km/h 78 % 0 mm 0 W/m2
00:10 -12.3 °C -14.2 °C 34178.3 hPa ENE 5.1 km/h 18.2 km/h 79 % 0 mm 0 W/m2
00:15 -12.2 °C -14.2 °C 34178.3 hPa NE 7.7 km/h 18.2 km/h 79 % 0 mm 0 W/m2
00:20 -12.2 °C -14.2 °C 34178.3 hPa ENE 2.6 km/h 23.3 km/h 78 % 0 mm 0 W/m2
00:25 -12.2 °C -14.2 °C 34178.3 hPa ENE 7.7 km/h 23.3 km/h 78 % 0 mm 0 W/m2
00:30 -12.2 °C -14.2 °C 34164.7 hPa ENE 25.9 km/h 25.9 km/h 78 % 0 mm 0 W/m2
00:35 -12.1 °C -14.1 °C 34164.7 hPa NE 10.3 km/h 25.9 km/h 78 % 0 mm 0 W/m2
00:40 -11.9 °C -14.2 °C 34164.7 hPa ESE 18.2 km/h 25.9 km/h 76 % 0 mm 0 W/m2
00:45 -11.8 °C -14.1 °C 34164.7 hPa ENE 5.1 km/h 23.3 km/h 76 % 0 mm 0 W/m2
00:50 -11.9 °C -14.1 °C 34154.6 hPa East 12.9 km/h 23.3 km/h 76 % 0 mm 0 W/m2
00:55 -11.9 °C -14.2 °C 34154.6 hPa East 12.9 km/h 20.8 km/h 76 % 0 mm 0 W/m2
01:00 -11.8 °C -14.1 °C 34154.6 hPa ENE 7.7 km/h 23.3 km/h 76 % 0 mm 0 W/m2
01:10 -11.8 °C -14.1 °C 34154.6 hPa East 7.7 km/h 25.9 km/h 76 % 0 mm 0 W/m2
01:15 -11.9 °C -14.1 °C 34154.6 hPa East 2.6 km/h 18.2 km/h 76 % 0 mm 0 W/m2
01:20 -12 °C -14.2 °C 34154.6 hPa ENE 7.7 km/h 20.8 km/h 76 % 0 mm 0 W/m2
01:25 -12.1 °C -14.2 °C 34154.6 hPa East 5.1 km/h 20.8 km/h 77 % 0 mm 0 W/m2
01:30 -12.1 °C -14.2 °C 34144.4 hPa ENE 10.3 km/h 20.8 km/h 77 % 0 mm 0 W/m2
01:35 -12.2 °C -14.2 °C 34144.4 hPa ENE 2.6 km/h 20.8 km/h 78 % 0 mm 0 W/m2
01:45 -12.2 °C -14.3 °C 34144.4 hPa East 12.9 km/h 25.9 km/h 78 % 0 mm 0 W/m2
01:50 -12.3 °C -14.3 °C 34144.4 hPa East 18.2 km/h 25.9 km/h 78 % 0 mm 0 W/m2
01:55 -12.3 °C -14.2 °C 34130.9 hPa ENE 7.7 km/h 23.3 km/h 79 % 0 mm 0 W/m2
02:00 -12.3 °C -14.2 °C 34130.9 hPa NE 7.7 km/h 25.9 km/h 79 % 0 mm 0 W/m2
02:05 -12.3 °C -14.3 °C 34130.9 hPa East 15.6 km/h 25.9 km/h 79 % 0 mm 0 W/m2
02:10 -12.3 °C -14.3 °C 34130.9 hPa ENE 20.8 km/h 20.8 km/h 79 % 0 mm 0 W/m2
02:15 -12.4 °C -14.3 °C 34130.9 hPa NE 7.7 km/h 20.8 km/h 80 % 0 mm 0 W/m2
02:20 -12.6 °C -14.3 °C 34130.9 hPa East 7.7 km/h 25.9 km/h 80 % 0 mm 0 W/m2
02:25 -12.6 °C -14.3 °C 34130.9 hPa ENE 2.6 km/h 25.9 km/h 81 % 0 mm 0 W/m2
02:30 -12.7 °C -14.4 °C 34130.9 hPa ENE 10.3 km/h 18.2 km/h 81 % 0 mm 0 W/m2
02:35 -12.7 °C -14.4 °C 34130.9 hPa ENE 5.1 km/h 15.6 km/h 82 % 0 mm 0 W/m2
02:40 -12.9 °C -14.5 °C 34130.9 hPa ENE 7.7 km/h 18.2 km/h 82 % 0 mm 0 W/m2
02:45 -13 °C -14.5 °C 34120.7 hPa NE 2.6 km/h 18.2 km/h 83 % 0 mm 0 W/m2
02:50 -13 °C -14.4 °C 34120.7 hPa ENE 7.7 km/h 15.6 km/h 84 % 0 mm 0 W/m2
02:55 -13.1 °C -14.6 °C 34120.7 hPa NE 5.1 km/h 12.9 km/h 84 % 0 mm 0 W/m2
03:00 -13.2 °C -14.5 °C 34120.7 hPa ENE 5.1 km/h 15.6 km/h 85 % 0 mm 0 W/m2
03:05 -13.2 °C -14.6 °C 34107.2 hPa NE 5.1 km/h 15.6 km/h 85 % 0 mm 0 W/m2
03:10 -13.3 °C -14.5 °C 34107.2 hPa North 5.1 km/h 18.2 km/h 86 % 0 mm 0 W/m2
03:15 -13.3 °C -14.5 °C 34107.2 hPa NE 7.7 km/h 18.2 km/h 86 % 0 mm 0 W/m2
03:20 -13.2 °C -14.4 °C 34097 hPa ENE 5.1 km/h 18.2 km/h 86 % 0 mm 0 W/m2
03:25 -13.2 °C -14.6 °C 34097 hPa Calm   18.2 km/h 85 % 0 mm 0 W/m2
03:30 -13.3 °C -14.5 °C 34097 hPa Calm   20.8 km/h 86 % 0 mm 0 W/m2
03:35 -13.3 °C -14.6 °C 34097 hPa Calm   20.8 km/h 86 % 0 mm 0 W/m2
03:40 -13.3 °C -14.5 °C 34086.9 hPa East 2.6 km/h 18.2 km/h 86 % 0 mm 0 W/m2
03:45 -13.2 °C -14.6 °C 34086.9 hPa NNE 10.3 km/h 18.2 km/h 85 % 0 mm 0 W/m2
03:50 -13.2 °C -14.5 °C 34086.9 hPa Calm   18.2 km/h 85 % 0 mm 0 W/m2
03:55 -13.2 °C -14.4 °C 34086.9 hPa NE 10.3 km/h 18.2 km/h 85 % 0 mm 0 W/m2
04:00 -13.1 °C -14.4 °C 34086.9 hPa Calm   18.2 km/h 85 % 0 mm 0 W/m2
04:05 -13.2 °C -14.4 °C 34073.3 hPa Calm   18.2 km/h 85 % 0 mm 0 W/m2
04:10 -13.3 °C -14.5 °C 34073.3 hPa Calm   18.2 km/h 86 % 0 mm 0 W/m2
04:15 -13.2 °C -14.4 °C 34073.3 hPa NE 2.6 km/h 20.8 km/h 86 % 0 mm 0 W/m2
04:20 -13.2 °C -14.4 °C 34063.2 hPa NE 5.1 km/h 20.8 km/h 86 % 0 mm 0 W/m2
04:25 -13.2 °C -14.4 °C 34063.2 hPa NE 10.3 km/h 15.6 km/h 86 % 0 mm 0 W/m2
04:30 -13.2 °C -14.4 °C 34063.2 hPa NE 2.6 km/h 18.2 km/h 86 % 0 mm 0 W/m2
04:35 -13.2 °C -14.6 °C 34049.6 hPa ENE 25.9 km/h 28.5 km/h 85 % 0 mm 0 W/m2
04:40 -13.2 °C -14.5 °C 34049.6 hPa NE 5.1 km/h 28.5 km/h 85 % 0 mm 0 W/m2
04:45 -13.2 °C -14.6 °C 34049.6 hPa NE 15.6 km/h 28.5 km/h 85 % 0 mm 0 W/m2
04:50 -13.2 °C -14.6 °C 34049.6 hPa NE 18.2 km/h 31.1 km/h 85 % 0 mm 0 W/m2
04:55 -13.2 °C -14.6 °C 34039.5 hPa ESE 18.2 km/h 31.1 km/h 85 % 0 mm 0 W/m2
05:00 -13.2 °C -14.6 °C 34039.5 hPa East 15.6 km/h 25.9 km/h 84 % 0 mm 0 W/m2
05:05 -13.1 °C -14.6 °C 34039.5 hPa East 7.7 km/h 25.9 km/h 84 % 0 mm 0 W/m2
05:10 -13.1 °C -14.6 °C 34029.3 hPa East 25.9 km/h 33.6 km/h 83 % 0 mm 0 W/m2
05:15 -13.1 °C -14.6 °C 34029.3 hPa ENE 5.1 km/h 33.6 km/h 83 % 0 mm 0 W/m2
05:20 -13.1 °C -14.7 °C 34029.3 hPa ENE 10.3 km/h 33.6 km/h 82 % 0 mm 0 W/m2
05:25 -13 °C -14.6 °C 34029.3 hPa East 15.6 km/h 25.9 km/h 82 % 0 mm 0 W/m2
05:30 -13 °C -14.6 °C 34029.3 hPa East 12.9 km/h 25.9 km/h 82 % 0 mm 0 W/m2
05:35 -13 °C -14.6 °C 34029.3 hPa East 5.1 km/h 31.1 km/h 82 % 0 mm 0 W/m2
05:40 -13 °C -14.6 °C 34029.3 hPa East 18.2 km/h 31.1 km/h 82 % 0 mm 0 W/m2
05:45 -13 °C -14.6 °C 34029.3 hPa East 10.3 km/h 28.5 km/h 82 % 0 mm 0 W/m2
05:50 -13 °C -14.7 °C 34029.3 hPa ENE 25.9 km/h 28.5 km/h 81 % 0 mm 0 W/m2
05:55 -13 °C -14.7 °C 34015.8 hPa ENE 12.9 km/h 28.5 km/h 81 % 0 mm 0 W/m2
06:00 -13.1 °C -14.7 °C 34015.8 hPa ENE 23.3 km/h 25.9 km/h 82 % 0 mm 0 W/m2
06:10 -13.1 °C -14.7 °C 34005.6 hPa ENE 10.3 km/h 33.6 km/h 82 % 0 mm 0 W/m2
06:15 -13.1 °C -14.7 °C 34005.6 hPa NE 18.2 km/h 28.5 km/h 82 % 0 mm 0 W/m2
06:20 -13.2 °C -14.8 °C 34005.6 hPa ENE 5.1 km/h 28.5 km/h 82 % 0 mm 0 W/m2
06:25 -13.2 °C -14.7 °C 34005.6 hPa East 7.7 km/h 28.5 km/h 83 % 0 mm 0 W/m2
06:30 -13.2 °C -14.7 °C 34005.6 hPa ENE 7.7 km/h 28.5 km/h 83 % 0 mm 0 W/m2
06:35 -13.2 °C -14.7 °C 33992.1 hPa East 12.9 km/h 28.5 km/h 83 % 0 mm 0 W/m2
06:40 -13.3 °C -14.8 °C 33992.1 hPa ENE 12.9 km/h 28.5 km/h 83 % 0 mm 5 W/m2
06:45 -13.3 °C -14.8 °C 33992.1 hPa East 10.3 km/h 28.5 km/h 83 % 0 mm 7 W/m2
06:50 -13.3 °C -14.8 °C 33992.1 hPa East 18.2 km/h 28.5 km/h 83 % 0 mm 11 W/m2
06:55 -13.3 °C -14.7 °C 33992.1 hPa East 15.6 km/h 25.9 km/h 84 % 0 mm 14 W/m2
07:00 -13.3 °C -14.7 °C 33992.1 hPa East 18.2 km/h 25.9 km/h 84 % 0 mm 18 W/m2
07:05 -13.2 °C -14.7 °C 33992.1 hPa SE 10.3 km/h 28.5 km/h 83 % 0 mm 21 W/m2
07:10 -13.2 °C -14.7 °C 33992.1 hPa East 20.8 km/h 28.5 km/h 83 % 0 mm 25 W/m2
07:15 -13.2 °C -14.7 °C 33992.1 hPa ENE 12.9 km/h 28.5 km/h 83 % 0 mm 26 W/m2
07:20 -13.2 °C -14.7 °C 33992.1 hPa East 20.8 km/h 25.9 km/h 83 % 0 mm 28 W/m2
07:25 -13.2 °C -14.7 °C 33981.9 hPa ENE 15.6 km/h 28.5 km/h 83 % 0 mm 30 W/m2
07:30 -13.2 °C -14.7 °C 33992.1 hPa ENE 18.2 km/h 28.5 km/h 83 % 0 mm 33 W/m2
07:35 -13.1 °C -14.6 °C 33981.9 hPa ESE 7.7 km/h 33.6 km/h 83 % 0 mm 33 W/m2
07:40 -13 °C -14.6 °C 33981.9 hPa ENE 5.1 km/h 33.6 km/h 83 % 0 mm 35 W/m2
07:45 -13 °C -14.6 °C 33981.9 hPa ENE 25.9 km/h 41.4 km/h 83 % 0 mm 35 W/m2
07:50 -12.9 °C -14.5 °C 33981.9 hPa NE 2.6 km/h 41.4 km/h 83 % 0 mm 37 W/m2
07:55 -12.9 °C -14.5 °C 33981.9 hPa East 5.1 km/h 28.5 km/h 82 % 0 mm 35 W/m2
08:00 -12.8 °C -14.4 °C 33981.9 hPa NE 7.7 km/h 33.6 km/h 82 % 0 mm 39 W/m2
08:05 -12.7 °C -14.4 °C 33981.9 hPa East 20.8 km/h 33.6 km/h 82 % 0 mm 40 W/m2
08:10 -12.7 °C -14.3 °C 33981.9 hPa East 7.7 km/h 23.3 km/h 82 % 0 mm 42 W/m2
08:15 -12.6 °C -14.3 °C 33981.9 hPa East 25.9 km/h 28.5 km/h 81 % 0 mm 44 W/m2
08:20 -12.6 °C -14.3 °C 33981.9 hPa East 18.2 km/h 36.2 km/h 81 % 0 mm 47 W/m2
08:25 -12.4 °C -14.3 °C 33981.9 hPa SE 25.9 km/h 36.2 km/h 80 % 0 mm 49 W/m2
08:30 -12.3 °C -14.2 °C 33981.9 hPa East 7.7 km/h 38.8 km/h 80 % 0 mm 220 W/m2
08:35 -12.2 °C -14.2 °C 33971.7 hPa East 15.6 km/h 38.8 km/h 79 % 0 mm 283 W/m2
08:40 -12.1 °C -14.2 °C 33958.2 hPa SE 23.3 km/h 41.4 km/h 78 % 0 mm 301 W/m2
08:45 -12 °C -14.1 °C 33958.2 hPa ESE 18.2 km/h 44.1 km/h 78 % 0 mm 316 W/m2
08:50 -11.9 °C -14.1 °C 33958.2 hPa ESE 15.6 km/h 44.1 km/h 77 % 0 mm 329 W/m2
08:55 -11.8 °C -14.1 °C 33958.2 hPa NE 10.3 km/h 41.4 km/h 76 % 0 mm 346 W/m2
09:00 -11.6 °C -13.9 °C 33958.2 hPa East 20.8 km/h 41.4 km/h 76 % 0 mm 364 W/m2
09:10 -11.3 °C -13.8 °C 33948 hPa East 12.9 km/h 46.7 km/h 74 % 0 mm 397 W/m2
09:15 -11.2 °C -13.7 °C 33958.2 hPa ENE 36.2 km/h 46.7 km/h 74 % 0 mm 413 W/m2
09:20 -11.1 °C -13.6 °C 33948 hPa SE 18.2 km/h 41.4 km/h 74 % 0 mm 415 W/m2
09:25 -11 °C -13.6 °C 33948 hPa East 18.2 km/h 41.4 km/h 73 % 0 mm 434 W/m2
09:30 -10.9 °C -13.6 °C 33948 hPa ENE 7.7 km/h 38.8 km/h 73 % 0 mm 450 W/m2
09:35 -10.8 °C -13.6 °C 33948 hPa East 23.3 km/h 36.2 km/h 72 % 0 mm 454 W/m2
09:40 -10.7 °C -13.5 °C 33948 hPa East 18.2 km/h 44.1 km/h 72 % 0 mm 476 W/m2
09:45 -10.6 °C -13.3 °C 33948 hPa ESE 23.3 km/h 44.1 km/h 72 % 0 mm 489 W/m2
09:50 -10.6 °C -13.4 °C 33948 hPa East 15.6 km/h 41.4 km/h 71 % 0 mm 504 W/m2
09:55 -10.4 °C -13.4 °C 33948 hPa ESE 31.1 km/h 44.1 km/h 70 % 0 mm 524 W/m2
10:05 -10.1 °C -13.1 °C 33948 hPa East 18.2 km/h 38.8 km/h 70 % 0 mm 538 W/m2
10:10 -10.1 °C -13.2 °C 33948 hPa East 12.9 km/h 33.6 km/h 69 % 0 mm 566 W/m2
10:15 -9.9 °C -13.1 °C 33948 hPa ESE 12.9 km/h 33.6 km/h 69 % 0 mm 582 W/m2
10:20 -9.8 °C -13.1 °C 33937.9 hPa East 25.9 km/h 33.6 km/h 68 % 0 mm 601 W/m2
10:25 -9.7 °C -12.9 °C 33937.9 hPa ESE 12.9 km/h 33.6 km/h 68 % 0 mm 594 W/m2
10:30 -9.6 °C -13.1 °C 33937.9 hPa East 20.8 km/h 33.6 km/h 66 % 0 mm 617 W/m2
10:35 -9.3 °C -12.7 °C 33937.9 hPa ENE 12.9 km/h 33.6 km/h 67 % 0 mm 622 W/m2
10:40 -9.3 °C -12.8 °C 33937.9 hPa East 15.6 km/h 33.6 km/h 66 % 0 mm 635 W/m2
10:55 -9.1 °C -12.7 °C 33924.3 hPa SE 23.3 km/h 36.2 km/h 65 % 0 mm 645 W/m2
11:00 -9.1 °C -12.7 °C 33924.3 hPa ESE 12.9 km/h 36.2 km/h 65 % 0 mm 578 W/m2
11:05 -9.1 °C -12.6 °C 33924.3 hPa ESE 20.8 km/h 44.1 km/h 66 % 0 mm 570 W/m2
11:10 -8.9 °C -12.4 °C 33924.3 hPa ESE 5.1 km/h 44.1 km/h 66 % 0 mm 631 W/m2
11:15 -8.8 °C -12.6 °C 33924.3 hPa East 23.3 km/h 28.5 km/h 64 % 0 mm 526 W/m2
11:20 -8.8 °C -12.4 °C 33924.3 hPa ENE 10.3 km/h 28.5 km/h 65 % 0 mm 594 W/m2
11:25 -8.7 °C -12 °C 33924.3 hPa ENE 7.7 km/h 33.6 km/h 68 % 0 mm 626 W/m2
11:30 -8.6 °C -12.2 °C 33924.3 hPa ENE 20.8 km/h 33.6 km/h 66 % 0 mm 800 W/m2
11:35 -8.4 °C -12.5 °C 33924.3 hPa ESE 18.2 km/h 36.2 km/h 62 % 0 mm 726 W/m2
11:40 -8.4 °C -12.3 °C 33924.3 hPa ENE 10.3 km/h 36.2 km/h 63 % 0 mm 622 W/m2
11:45 -8.4 °C -12.3 °C 33924.3 hPa East 20.8 km/h 36.2 km/h 63 % 0 mm 624 W/m2
11:50 -8.4 °C -12.3 °C 33924.3 hPa East 7.7 km/h 36.2 km/h 63 % 0 mm 566 W/m2
11:55 -8.2 °C -12.1 °C 33914.2 hPa ENE 20.8 km/h 36.2 km/h 64 % 0 mm 751 W/m2
12:00 -7.9 °C -11.6 °C 33914.2 hPa ENE 23.3 km/h 36.2 km/h 65 % 0 mm 802 W/m2
12:05 -7.7 °C -11.7 °C 33914.2 hPa East 5.1 km/h 33.6 km/h 63 % 0 mm 752 W/m2
12:10 -7.7 °C -12 °C 33900.6 hPa ESE 7.7 km/h 33.6 km/h 61 % 0 mm 745 W/m2
12:15 -7.6 °C -11.7 °C 33900.6 hPa ENE 20.8 km/h 36.2 km/h 62 % 0 mm 740 W/m2
12:20 -7.4 °C -11.7 °C 33900.6 hPa East 12.9 km/h 36.2 km/h 61 % 0 mm 671 W/m2
12:25 -7.4 °C -11.7 °C 33900.6 hPa ENE 20.8 km/h 36.2 km/h 61 % 0 mm 742 W/m2
12:30 -7.4 °C -11.2 °C 33900.6 hPa ENE 12.9 km/h 36.2 km/h 65 % 0 mm 613 W/m2
12:35 -7.4 °C -11.6 °C 33900.6 hPa East 25.9 km/h 36.2 km/h 62 % 0 mm 598 W/m2
12:40 -7.6 °C -11.8 °C 33900.6 hPa East 18.2 km/h 36.2 km/h 61 % 0 mm 476 W/m2
12:45 -7.7 °C -11.9 °C 33900.6 hPa ESE 12.9 km/h 33.6 km/h 61 % 0 mm 561 W/m2
12:50 -7.6 °C -11.8 °C 33900.6 hPa SE 12.9 km/h 33.6 km/h 61 % 0 mm 640 W/m2
12:55 -7.3 °C -11.6 °C 33900.6 hPa ENE 10.3 km/h 33.6 km/h 61 % 0 mm 680 W/m2
13:00 -7.2 °C -11.7 °C 33900.6 hPa NE 20.8 km/h 31.1 km/h 59 % 0 mm 796 W/m2
13:05 -7.1 °C -11.5 °C 33900.6 hPa East 12.9 km/h 28.5 km/h 60 % 0 mm 800 W/m2
13:10 -7 °C -11.4 °C 33900.6 hPa East 15.6 km/h 33.6 km/h 60 % 0 mm 731 W/m2
13:15 -7 °C -11.4 °C 33900.6 hPa ESE 5.1 km/h 33.6 km/h 60 % 0 mm 700 W/m2
13:20 -6.8 °C -11.3 °C 33900.6 hPa East 12.9 km/h 31.1 km/h 60 % 0 mm 926 W/m2
13:25 -6.7 °C -11.2 °C 33890.5 hPa East 20.8 km/h 28.5 km/h 60 % 0 mm 724 W/m2
13:30 -6.7 °C -11.3 °C 33890.5 hPa ESE 20.8 km/h 28.5 km/h 59 % 0 mm 719 W/m2
13:35 -6.8 °C -11.5 °C 33890.5 hPa East 2.6 km/h 38.8 km/h 58 % 0 mm 631 W/m2
13:40 -6.7 °C -11.4 °C 33890.5 hPa SE 23.3 km/h 38.8 km/h 58 % 0 mm 830 W/m2
13:45 -6.6 °C -11.4 °C 33890.5 hPa East 20.8 km/h 36.2 km/h 57 % 0 mm 932 W/m2
13:50 -6.5 °C -11.2 °C 33890.5 hPa SE 15.6 km/h 38.8 km/h 58 % 0 mm 879 W/m2
13:55 -6.5 °C -11.2 °C 33890.5 hPa SE 28.5 km/h 38.8 km/h 58 % 0 mm 886 W/m2
14:00 -6.4 °C -11.1 °C 33890.5 hPa SE 25.9 km/h 33.6 km/h 59 % 0 mm 905 W/m2
14:05 -6.5 °C -11.4 °C 33890.5 hPa SE 18.2 km/h 33.6 km/h 57 % 0 mm 907 W/m2
14:10 -6.5 °C -11.7 °C 33890.5 hPa South 28.5 km/h 46.7 km/h 55 % 0 mm 700 W/m2
14:15 -6.7 °C -11.4 °C 33890.5 hPa SE 10.3 km/h 46.7 km/h 58 % 0 mm 438 W/m2
14:20 -6.8 °C -11.4 °C 33890.5 hPa SE 15.6 km/h 38.8 km/h 59 % 0 mm 431 W/m2
14:25 -6.8 °C -11.2 °C 33890.5 hPa SSW 12.9 km/h 38.8 km/h 60 % 0 mm 429 W/m2
14:30 -6.8 °C -11.4 °C 33880.3 hPa East 20.8 km/h 31.1 km/h 59 % 0 mm 304 W/m2
14:35 -6.9 °C -11.4 °C 33880.3 hPa East 15.6 km/h 38.8 km/h 60 % 0 mm 227 W/m2
14:40 -7.1 °C -11.2 °C 33880.3 hPa SSE 20.8 km/h 38.8 km/h 62 % 0 mm 339 W/m2
14:45 -6.9 °C -11.2 °C 33866.8 hPa SSE 10.3 km/h 33.6 km/h 61 % 0 mm 378 W/m2
14:50 -6.7 °C -11 °C 33866.8 hPa SSW 7.7 km/h 33.6 km/h 61 % 0 mm 353 W/m2
14:55 -6.7 °C -11 °C 33866.8 hPa SSW 31.1 km/h 36.2 km/h 61 % 0 mm 274 W/m2
15:00 -6.8 °C -11.1 °C 33866.8 hPa South 23.3 km/h 41.4 km/h 61 % 0 mm 230 W/m2
15:05 -7 °C -11.1 °C 33880.3 hPa South 31.1 km/h 54.4 km/h 62 % 0 mm 183 W/m2
15:10 -7.3 °C -11.3 °C 33866.8 hPa SSE 28.5 km/h 54.4 km/h 63 % 0 mm 174 W/m2
15:15 -7.4 °C -11.1 °C 33866.8 hPa SE 18.2 km/h 38.8 km/h 65 % 0 mm 121 W/m2
15:20 -7.4 °C -11.2 °C 33866.8 hPa SSW 15.6 km/h 44.1 km/h 65 % 0 mm 128 W/m2
15:25 -7.5 °C -11.2 °C 33866.8 hPa SSE 25.9 km/h 44.1 km/h 65 % 0 mm 172 W/m2
15:30 -7.5 °C -11.2 °C 33866.8 hPa SE 20.8 km/h 38.8 km/h 65 % 0 mm 223 W/m2
15:35 -7.4 °C -11.1 °C 33866.8 hPa SSW 15.6 km/h 38.8 km/h 66 % 0 mm 185 W/m2
15:40 -7.5 °C -10.9 °C 33866.8 hPa SE 12.9 km/h 33.6 km/h 67 % 0 mm 213 W/m2
15:45 -7.5 °C -10.9 °C 33866.8 hPa SSE 7.7 km/h 31.1 km/h 67 % 0 mm 260 W/m2
15:50 -7.3 °C -10.7 °C 33866.8 hPa SSE 12.9 km/h 28.5 km/h 68 % 0 mm 404 W/m2
15:55 -7.2 °C -10.6 °C 33866.8 hPa SSE 25.9 km/h 44.1 km/h 68 % 0 mm 353 W/m2
16:00 -7.5 °C -10.6 °C 33866.8 hPa South 31.1 km/h 54.4 km/h 70 % 0 mm 294 W/m2
16:05 -7.6 °C -10.6 °C 33866.8 hPa SSW 25.9 km/h 54.4 km/h 71 % 0 mm 243 W/m2
16:10 -7.8 °C -10.5 °C 33866.8 hPa SSW 18.2 km/h 51.8 km/h 73 % 0 mm 264 W/m2
16:15 -7.9 °C -10.6 °C 33866.8 hPa SSW 23.3 km/h 51.8 km/h 74 % 0 mm 262 W/m2
16:20 -8.1 °C -10.5 °C 33866.8 hPa South 23.3 km/h 51.8 km/h 76 % 0 mm 260 W/m2
16:25 -8.2 °C -10.4 °C 33866.8 hPa South 18.2 km/h 51.8 km/h 77 % 0 mm 241 W/m2
16:30 -8.2 °C -10.4 °C 33866.8 hPa South 31.1 km/h 54.4 km/h 77 % 0 mm 248 W/m2
16:35 -8.3 °C -10.6 °C 33866.8 hPa South 15.6 km/h 54.4 km/h 77 % 0 mm 318 W/m2
16:40 -8.2 °C -10.4 °C 33866.8 hPa SSE 36.2 km/h 46.7 km/h 78 % 0 mm 420 W/m2
16:45 -8.1 °C -10.4 °C 33866.8 hPa SSE 41.4 km/h 41.4 km/h 77 % 0 mm 406 W/m2
16:50 -8.1 °C -10.4 °C 33866.8 hPa South 31.1 km/h 44.1 km/h 76 % 0 mm 503 W/m2
16:55 -7.9 °C -10.3 °C 33866.8 hPa South 10.3 km/h 51.8 km/h 76 % 0 mm 490 W/m2
17:00 -7.9 °C -10.3 °C 33866.8 hPa SSW 25.9 km/h 57 km/h 76 % 0 mm 403 W/m2
17:05 -7.7 °C -10.2 °C 33856.6 hPa SSW 33.6 km/h 57 km/h 75 % 0 mm 352 W/m2
17:10 -7.9 °C -10.4 °C 33856.6 hPa South 18.2 km/h 46.7 km/h 75 % 0 mm 397 W/m2
17:15 -7.9 °C -10.3 °C 33856.6 hPa SSW 18.2 km/h 46.7 km/h 76 % 0 mm 642 W/m2
17:20 -7.8 °C -10.3 °C 33856.6 hPa South 20.8 km/h 46.7 km/h 75 % 0 mm 592 W/m2
17:25 -7.6 °C -10.3 °C 33856.6 hPa South 31.1 km/h 44.1 km/h 73 % 0 mm 650 W/m2
17:35 -7.6 °C -10.6 °C 33843.1 hPa South 28.5 km/h 46.7 km/h 70 % 0 mm 610 W/m2
17:40 -7.6 °C -10.4 °C 33856.6 hPa SSW 23.3 km/h 46.7 km/h 72 % 0 mm 457 W/m2
17:45 -7.6 °C -10.8 °C 33843.1 hPa South 20.8 km/h 51.8 km/h 69 % 0 mm 573 W/m2
17:50 -7.7 °C -10.7 °C 33843.1 hPa SSE 33.6 km/h 51.8 km/h 70 % 0 mm 557 W/m2
17:55 -7.7 °C -10.8 °C 33856.6 hPa SSE 28.5 km/h 51.8 km/h 70 % 0 mm 534 W/m2
18:00 -7.7 °C -10.9 °C 33843.1 hPa SSW 18.2 km/h 51.8 km/h 69 % 0 mm 520 W/m2
18:05 -7.6 °C -10.9 °C 33843.1 hPa South 31.1 km/h 44.1 km/h 68 % 0 mm 480 W/m2
18:10 -7.8 °C -11 °C 33856.6 hPa South 36.2 km/h 49.2 km/h 69 % 0 mm 132 W/m2
18:15 -7.9 °C -11 °C 33856.6 hPa South 25.9 km/h 49.2 km/h 70 % 0 mm 469 W/m2
18:20 -7.9 °C -11 °C 33856.6 hPa South 20.8 km/h 51.8 km/h 70 % 0 mm 459 W/m2
18:25 -7.9 °C -11.1 °C 33856.6 hPa SSW 31.1 km/h 51.8 km/h 69 % 0 mm 443 W/m2
18:30 -7.9 °C -11.1 °C 33856.6 hPa SSW 18.2 km/h 46.7 km/h 69 % 0 mm 420 W/m2
18:35 -7.9 °C -11.2 °C 33856.6 hPa South 36.2 km/h 46.7 km/h 69 % 0 mm 417 W/m2
18:40 -8 °C -11.1 °C 33843.1 hPa SE 18.2 km/h 46.7 km/h 70 % 0 mm 408 W/m2
18:45 -7.9 °C -11.1 °C 33856.6 hPa SE 20.8 km/h 46.7 km/h 70 % 0 mm 390 W/m2
18:50 -8 °C -11.1 °C 33843.1 hPa SSW 46.7 km/h 46.7 km/h 70 % 0 mm 369 W/m2
18:55 -8.2 °C -11.2 °C 33856.6 hPa South 20.8 km/h 49.2 km/h 70 % 0 mm 336 W/m2
19:00 -8.2 °C -11.1 °C 33856.6 hPa South 20.8 km/h 49.2 km/h 71 % 0 mm 339 W/m2
19:05 -8.4 °C -11.2 °C 33856.6 hPa SSW 18.2 km/h 41.4 km/h 72 % 0 mm 111 W/m2
19:10 -8.6 °C -11.3 °C 33856.6 hPa SSW 18.2 km/h 41.4 km/h 73 % 0 mm 148 W/m2
19:15 -8.7 °C -11.2 °C 33856.6 hPa SSE 25.9 km/h 38.8 km/h 74 % 0 mm 128 W/m2
19:20 -8.7 °C -11.2 °C 33856.6 hPa SSE 10.3 km/h 38.8 km/h 74 % 0 mm 134 W/m2
19:25 -8.6 °C -11.4 °C 33843.1 hPa SSW 10.3 km/h 36.2 km/h 72 % 0 mm 125 W/m2
19:30 -8.7 °C -11.3 °C 33843.1 hPa SSW 18.2 km/h 41.4 km/h 74 % 0 mm 95 W/m2
19:35 -8.7 °C -11.1 °C 33843.1 hPa SSW 7.7 km/h 41.4 km/h 76 % 0 mm 81 W/m2
19:40 -8.8 °C -11.2 °C 33843.1 hPa SSW 18.2 km/h 25.9 km/h 76 % 0 mm 76 W/m2
19:45 -8.9 °C -11.2 °C 33843.1 hPa SW 10.3 km/h 28.5 km/h 77 % 0 mm 63 W/m2
19:50 -9 °C -11.2 °C 33843.1 hPa WSW 18.2 km/h 28.5 km/h 77 % 0 mm 51 W/m2
19:55 -9.1 °C -11.1 °C 33843.1 hPa SSW 7.7 km/h 28.5 km/h 79 % 0 mm 42 W/m2
20:00 -9.1 °C -11.2 °C 33832.9 hPa South 12.9 km/h 33.6 km/h 79 % 0 mm 47 W/m2
20:05 -9.2 °C -11.1 °C 33832.9 hPa SW 10.3 km/h 33.6 km/h 80 % 0 mm 46 W/m2
20:10 -9.2 °C -11.1 °C 33832.9 hPa SSW 10.3 km/h 28.5 km/h 80 % 0 mm 46 W/m2
20:15 -9.3 °C -11.2 °C 33832.9 hPa South 12.9 km/h 23.3 km/h 80 % 0 mm 49 W/m2
20:20 -9.3 °C -11.2 °C 33832.9 hPa South 12.9 km/h 23.3 km/h 80 % 0 mm 49 W/m2
20:25 -9.3 °C -11.2 °C 33822.8 hPa SW 7.7 km/h 23.3 km/h 80 % 0 mm 39 W/m2
20:30 -9.3 °C -11.2 °C 33822.8 hPa SW 2.6 km/h 23.3 km/h 80 % 0 mm 25 W/m2
20:35 -9.4 °C -11.2 °C 33822.8 hPa Calm   20.8 km/h 81 % 0 mm 23 W/m2
20:40 -9.4 °C -11.2 °C 33822.8 hPa SSW 15.6 km/h 20.8 km/h 81 % 0 mm 26 W/m2
20:45 -9.5 °C -11.3 °C 33822.8 hPa South 2.6 km/h 20.8 km/h 81 % 0 mm 25 W/m2
20:50 -9.6 °C -11.2 °C 33822.8 hPa SSW 5.1 km/h 18.2 km/h 82 % 0 mm 26 W/m2
20:55 -9.6 °C -11.2 °C 33822.8 hPa SSW 7.7 km/h 18.2 km/h 83 % 0 mm 30 W/m2
21:00 -9.6 °C -11.2 °C 33822.8 hPa SSW 2.6 km/h 18.2 km/h 83 % 0 mm 28 W/m2
21:05 -9.6 °C -11.1 °C 33822.8 hPa Calm   12.9 km/h 84 % 0 mm 30 W/m2
21:10 -9.7 °C -11.2 °C 33822.8 hPa SW 2.6 km/h 12.9 km/h 84 % 0 mm 30 W/m2
21:15 -9.7 °C -11.1 °C 33822.8 hPa Calm   12.9 km/h 85 % 0 mm 28 W/m2
21:20 -9.8 °C -11.1 °C 33809.2 hPa WSW 5.1 km/h 12.9 km/h 85 % 0 mm 23 W/m2
21:25 -9.8 °C -11.1 °C 33809.2 hPa WSW 2.6 km/h 12.9 km/h 86 % 0 mm 18 W/m2
21:30 -9.9 °C -11.2 °C 33809.2 hPa WSW 2.6 km/h 12.9 km/h 86 % 0 mm 9 W/m2
21:35 -10.1 °C -11.3 °C 33809.2 hPa Calm   10.3 km/h 87 % 0 mm 5 W/m2
21:40 -10.3 °C -11.4 °C 33809.2 hPa Calm   2.6 km/h 88 % 0 mm 0 W/m2
21:45 -10.5 °C -11.5 °C 33809.2 hPa Calm   2.6 km/h 89 % 0 mm 0 W/m2
21:50 -10.7 °C -11.6 °C 33809.2 hPa Calm     90 % 0 mm 0 W/m2
21:55 -10.8 °C -11.6 °C 33809.2 hPa Calm     91 % 0 mm 0 W/m2
22:00 -10.9 °C -11.7 °C 33809.2 hPa Calm     91 % 0 mm 0 W/m2
22:05 -10.9 °C -11.7 °C 33809.2 hPa Calm     92 % 0 mm 0 W/m2
22:10 -11.1 °C -11.7 °C 33809.2 hPa Calm     92 % 0 mm 0 W/m2
22:15 -11.2 °C -11.9 °C 33809.2 hPa Calm     92 % 0 mm 0 W/m2
22:20 -11.1 °C -11.7 °C 33809.2 hPa Calm     93 % 0 mm 0 W/m2
22:25 -11.1 °C -11.7 °C 33809.2 hPa Calm     93 % 0 mm 0 W/m2
22:30 -11.2 °C -11.8 °C 33809.2 hPa Calm     93 % 0 mm 0 W/m2
22:35 -11.2 °C -11.7 °C 33809.2 hPa Calm     94 % 0 mm 0 W/m2
22:40 -11.2 °C -11.7 °C 33809.2 hPa Calm     94 % 0 mm 0 W/m2
22:45 -11.2 °C -11.8 °C 33809.2 hPa Calm     94 % 0 mm 0 W/m2
22:50 -11.2 °C -11.8 °C 33809.2 hPa Calm     94 % 0 mm 0 W/m2
22:55 -11.2 °C -11.8 °C 33809.2 hPa Calm     94 % 0 mm 0 W/m2
23:00 -11.3 °C -11.8 °C 33809.2 hPa Calm     94 % 0 mm 0 W/m2
23:05 -11.3 °C -11.8 °C 33809.2 hPa Calm     94 % 0 mm 0 W/m2
23:10 -11.3 °C -11.7 °C 33809.2 hPa Calm     95 % 0 mm 0 W/m2
23:15 -11.2 °C -11.6 °C 33809.2 hPa Calm     95 % 0 mm 0 W/m2
23:20 -11.2 °C -11.6 °C 33809.2 hPa Calm     95 % 0 mm 0 W/m2
23:25 -11.1 °C -11.6 °C 33809.2 hPa Calm     95 % 0 mm 0 W/m2
23:30 -11.2 °C -11.6 °C 33809.2 hPa Calm     95 % 0 mm 0 W/m2
23:35 -11.1 °C -11.6 °C 33799.1 hPa Calm   2.6 km/h 95 % 0 mm 0 W/m2
23:40 -11.1 °C -11.5 °C 33799.1 hPa Calm   2.6 km/h 95 % 0 mm 0 W/m2
23:45 -10.9 °C -11.4 °C 33799.1 hPa Calm   2.6 km/h 95 % 0 mm 0 W/m2
23:50 -10.8 °C -11.3 °C 33799.1 hPa Calm   2.6 km/h 95 % 0 mm 0 W/m2
23:55 -10.7 °C -11.3 °C 33799.1 hPa ESE 2.6 km/h 5.1 km/h 94 % 0 mm 0 W/m2
Avec l'autorisation de Weather Underground - 1.75 mb